Weather in Monrovia

Liberia     6°20′11″N   10°44′16″W
В апреле 2022 года жителям России запретили посещать сайт meteo.paraplan.net по решению Генеральной прокуратуры. Аудитория сайта уменьшилась в 10 раз. Владельцы сайта не видят смысла в поддержке погодного сервера в таких условиях. Сайт будет закрыт в октябре.
temp.,
°C
wind,
m/s
gust,
m/s
humid.,
%
clouds,
%
prec.,
mm/h
press.,
hPa
HPBL,
m
6 october, thu
thu600:00+25ssw1288100 1.3 1013120
03:00+25ssw2386100 0.0 1011238
06:00+25ssw1185100 0.0 1012231
09:00+27s2277100 0.0 1013572
12:00+27ssw3377100 0.6 1013603
15:00+27sw337489 0.3 1010829
18:00+26sw347976 0.3 1011452
21:00+25ssw348465 0.0 1013297
7 october, fri
fri700:00+25sw348574 0.1 1013309
03:00+25sw3488100 1.6 1011294
06:00+25sw2287100 5.8 1012192
09:00+24wnw1292100 3.3 1014156
12:00+26w227763 3.3 1013530
15:00+27wsw447250 0.1 1010710
18:00+26wsw457795 0.1 1011540
21:00+26sw358292 0.0 1013446
8 october, sat
sat800:00+25sw3482100 0.0 1013377
03:00+25w3485100 1.3 1011208
06:00+24n1187100 4.8 101255
09:00+25nne1185100 2.8 101448
12:00+25nne3385100 7.8 1013287
15:00+26nnw3281100 0.7 1011531
18:00+25nnw1186100 0.8 1011142
21:00+24nne1187100 0.0 1013117
9 october, sun
sun900:00+24sw128797 0.0 1013197
03:00+24nne118854 0.0 1012197
06:00+23nne229280 0.1 1012146
09:00+26n118162 0.0 1014296
12:00+27sw227481 0.1 1014633
15:00+28sw437228 0.0 1012694
18:00+27sw45795 0.0 1012478
21:00+26ssw35845 0.0 1014314
10 october, mon
mon1000:00+25sw358675 0.0 1014350
03:00+25wsw3488100 0.6 1012267
06:00+25nw128867 2.0 101368
09:00+26nnw01835 1.5 1015229
12:00+27wsw227521 2.8 1014650
15:00+28wsw437029 0.6 1011860
18:00+27sw45765 0.6 1012606
21:00+26sw3483100 0.0 1014343